Printer-friendly version

IAU Minor Planet Center

Minor Planet Center

MPEC 2004-V74 : COMET P/2004 T1 (LINEAR-NEAT)

The following Minor Planet Electronic Circular may be linked-to from your own Web pages, but must not otherwise be redistributed electronically.


Read MPEC 2004-V73 Read MPEC 2004-V75


M.P.E.C. 2004-V74                                Issued 2004 Nov. 15, 21:57 UT

     The Minor Planet Electronic Circulars contain information on unusual
         minor planets and routine data on comets.  They are published
   on behalf of Commission 20 of the International Astronomical Union by the
          Minor Planet Center, Smithsonian Astrophysical Observatory,
                          Cambridge, MA 02138, U.S.A.

                  Supported in part by the Brinson Foundation
             Prepared using the Tamkin Foundation Computer Network

                              MPC@CFA.HARVARD.EDU
          URL http://cfa-www.harvard.edu/iau/mpc.html  ISSN 1523-6714

                         COMET P/2004 T1 (LINEAR-NEAT)

Observations:
    PK04T010   2004 11 04.60000 00 41 03.99 -06 22 14.3                 EV074372
    PK04T010  C2004 11 06.13409 00 40 53.17 -05 57 29.2                 EV074834
    PK04T010  C2004 11 06.19644 00 40 52.67 -05 56 27.1                 EV074834
    PK04T010   2004 11 06.55139 00 40 51.32 -05 50 56.8          15.5 T EV074372
    PK04T010  C2004 11 08.75646 00 40 46.81 -05 14 46.3          17.4 N EV074104
    PK04T010  C2004 11 08.76275 00 40 46.81 -05 14 39.7          16.9 N EV074104
    PK04T010  C2004 11 08.76921 00 40 46.76 -05 14 33.4          17.5 N EV074104
    PK04T010  C2004 11 09.46111 00 40 47.26 -05 02 59.3                 EV074D88
    PK04T010  C2004 11 09.46456 00 40 47.24 -05 02 57.3          15.7 T EV074D88
    PK04T010  C2004 11 09.52749 00 40 47.13 -05 01 55.2                 EV074D83
    PK04T010  C2004 11 09.52928 00 40 47.15 -05 01 53.4                 EV074D83
    PK04T010  C2004 11 09.53113 00 40 47.16 -05 01 51.3                 EV074D83
    PK04T010  C2004 11 09.54753 00 40 47.25 -05 01 34.3          15.5 T EV074D83
    PK04T010  C2004 11 09.58302 00 40 47.12 -05 00 58.7                 EV074352
    PK04T010  C2004 11 09.58720 00 40 47.17 -05 00 55.1                 EV074352
    PK04T010  C2004 11 09.59094 00 40 47.16 -05 00 51.4                 EV074349
    PK04T010  C2004 11 09.59135 00 40 47.16 -05 00 50.1                 EV074352
    PK04T010  C2004 11 09.59476 00 40 47.20 -05 00 47.4          15.1 T EV074349
    PK04T010  C2004 11 10.12581 00 40 48.98 -04 51 53.5          14.5 T EV074673
    PK04T010  C2004 11 10.13137 00 40 48.97 -04 51 47.8                 EV074673
    PK04T010  C2004 11 10.13565 00 40 48.96 -04 51 43.5                 EV074673
    PK04T010  C2004 11 10.14086 00 40 48.96 -04 51 38.4                 EV074673
    PK04T010  C2004 11 10.82348 00 40 51.54 -04 40 08.4          15.9 N EV074213
    PK04T010  C2004 11 10.82433 00 40 51.60 -04 40 07.5          15.8 N EV074213
    PK04T010  C2004 11 10.82517 00 40 51.63 -04 40 07.3          15.9 N EV074213
    PK04T010  C2004 11 12.19032 00 40 59.86 -04 16 53.0          17.5 T EV074704
    PK04T010  C2004 11 12.20221 00 40 59.80 -04 16 40.1          18.2 T EV074704
    PK04T010  C2004 11 12.21410 00 40 59.92 -04 16 27.0          18.2 T EV074704
    PK04T010  C2004 11 12.22609 00 40 59.95 -04 16 15.5          18.0 T EV074704
    PK04T010  C2004 11 12.23798 00 40 59.97 -04 16 02.3          18.0 T EV074704
    PK04T010  C2004 11 13.85421 00 41 15.71 -03 48 16.6          15.9 N EV074939
    PK04T010  C2004 11 13.85744 00 41 15.73 -03 48 12.6          15.9 N EV074939
    PK04T010  C2004 11 13.86068 00 41 15.76 -03 48 08.8          15.9 N EV074939
    PK04T010  C2004 11 13.90208 00 41 16.05 -03 47 28.4          16.2 N EV074J93
    PK04T010  C2004 11 13.90600 00 41 16.06 -03 47 23.5          16.1 N EV074J93
    PK04T010  C2004 11 13.91022 00 41 16.28 -03 47 17.7          15.9 N EV074J93

Observer details:
104 San Marcello Pistoiese.  Observers L. Tesi, A. Boattini, M. Tombelli,
    G. Fagioli.  Measurers G. Forti, L. Tesi, A. Boattini, M. Tombelli.
    0.60-m f/4 reflector + CCD.
213 Observatorio Montcabre.  Observer R. Naves.  Measurer M. Campas.  0.30-m
    f/6.6 Schmidt-Cassegrain + CCD.
349 Ageo.  Observer K. Kadota.  0.25-m f/5.0 reflector + CCD.
352 Konan.  Observer M. Hotta.  0.25-m reflector + CCD.
372 Geisei.  Observer T. Seki.  0.60-m f/3.5 reflector.
673 Table Mountain Observatory, Wrightwood.  Observer J. Young.  0.6-m
    reflector + CCD.
704 Lincoln Laboratory ETS, New Mexico.  Observers M. Blythe, F. Shelly,
    M. Bezpalko, R. Huber, L. Manguso, D. Torres, R. Kracke, M. McCleary,
    H. Stange, A. Milner.  Measurers J. Stuart, R. Sayer, J. Evans, J. Kommers.
    1.0-m f/2.15 reflector + CCD.
834 Buenos Aires-AAAA.  Observers R. Mackintosh, M. Konishi, R. Caprio.
    Measurer R. Mackintosh.  0.25-m f/6.3 Schmidt-Cassegrain + CCD.
939 Observatorio Rodeno.  Observer J. Castellano.  0.20-m f/10
    Schmidt-Cassegrain + CCD.
D83 Miwa.  Observer Y. Ohshima.  0.25-m f/5 reflector + CCD.
D88 Hiratsuka.  Observer Y. Sugiyama.  0.25-m f/5.0 reflector + CCD.
J93 Mount Tuffley Observatory, Gloucester.  Observer J. Fletcher.  0.25-m
    f/5.5 Schmidt-Cassegrain + CCD.

Orbital elements:
    P/2004 T1 (LINEAR-NEAT)
Epoch 2004 Nov. 11.0 TT = JDT 2453320.5
T 2004 Nov. 7.77103 TT                                  MPC
q   1.7095643            (2000.0)            P               Q
n   0.15233762     Peri.  336.52440     +0.87731116     -0.45595928
a   3.4721457      Node    51.46002     +0.46506217     +0.73065161
e   0.5076346      Incl.   11.03793     +0.11850025     +0.50818240
P   6.47
From 312 observations 2004 July 16-Nov. 13, mean residual 0".59.

Brian G. Marsden             (C) Copyright 2004 MPC           M.P.E.C. 2004-V74

Read MPEC 2004-V73 Read MPEC 2004-V75


Our Web policy. Index to the CBAT/MPC/ICQ pages.


Valid HTML 4.01!